Weather History for Hot Springs, VA

Change the Weather History Date:

Friday, August 9, 2013

  Actual Average Record
Temperature  
Mean Temperature 70 °F -  
Max Temperature 75 °F 74 °F 86 °F (2001)
Min Temperature 66 °F 59 °F 55 °F (2008)
Cooling Degree Days 6    
Growing Degree Days 20 (Base 50)    
Moisture  
Dew Point 67 °F    
Average Humidity 91    
Maximum Humidity 100    
Minimum Humidity 73    
Precipitation  
Precipitation 0.00 in - - ()
Sea Level Pressure  
Sea Level Pressure 30.18 in    
Wind  
Wind Speed 13 mph (West)    
Max Wind Speed 21 mph    
Max Gust Speed 31 mph    
Visibility 7 miles    
Events Fog    
Averages and records for this station are not official NWS values.
T = Trace of Precipitation, MM = Missing Value Source: NWS Daily Summary

Daily Weather History Graph

Daily Weather History Graph

Search for Another Location

Airport:

Trip Planner

Search our weather history database for the weather conditions in past years. The results will help you decide how hot, cold, wet, or windy it might be!

Date:

Astronomy

Aug. 09, 2013 Rise Set
Actual Time 6:29 AM EDT 8:19 PM EDT
Civil Twilight 6:01 AM EDT 8:47 PM EDT
Nautical Twilight 5:26 AM EDT 9:22 PM EDT
Astronomical Twilight 4:49 AM EDT 9:59 PM EDT
Moon 9:10 AM EDT (8/9) 9:32 PM EDT (8/9)
Length of Visible Light 14h 46m
Length of Day
13h 49m
Waxing Crescent, 7% of the Moon is Illuminated
Aug 9
Waxing Crescent
Aug 14
First Quarter
Aug 20
Full
Aug 28
Last Quarter
Sep 5
New

Hourly Weather History & Observations

Time (EDT) Temp. Dew Point Humidity Pressure Visibility Wind Dir Wind Speed Gust Speed Precip Events Conditions
12:15 AM 66.2 °F 66.2 °F 100% 30.18 in 7.0 mi SW 10.4 mph - N/A   Mostly Cloudy
12:35 AM 66.2 °F 66.2 °F 100% 30.18 in 10.0 mi SW 12.7 mph - N/A   Mostly Cloudy
12:55 AM 66.2 °F 66.2 °F 100% 30.18 in 10.0 mi WSW 13.8 mph - N/A   Overcast
1:15 AM 66.2 °F 66.2 °F 100% 30.17 in 7.0 mi WSW 12.7 mph 17.3 mph N/A   Overcast
1:35 AM 66.2 °F 66.2 °F 100% 30.17 in 7.0 mi SW 11.5 mph - N/A   Overcast
1:55 AM 66.2 °F 66.2 °F 100% 30.17 in 10.0 mi WSW 16.1 mph 19.6 mph N/A   Mostly Cloudy
2:15 AM 66.2 °F 66.2 °F 100% 30.17 in 7.0 mi WSW 13.8 mph - N/A   Mostly Cloudy
2:35 AM 66.2 °F 66.2 °F 100% 30.16 in 5.0 mi WSW 11.5 mph - N/A   Mostly Cloudy
2:55 AM 66.2 °F 66.2 °F 100% 30.16 in 4.0 mi WSW 12.7 mph - N/A   Mostly Cloudy
3:15 AM 66.2 °F 66.2 °F 100% 30.16 in 4.0 mi WSW 13.8 mph 18.4 mph N/A   Overcast
3:35 AM 66.2 °F 66.2 °F 100% 30.16 in 3.0 mi WSW 13.8 mph - N/A   Overcast
3:55 AM 66.2 °F 66.2 °F 100% 30.16 in 0.8 mi West 15.0 mph - N/A   Overcast
4:15 AM 66.2 °F 66.2 °F 100% 30.15 in 0.8 mi WSW 13.8 mph - N/A   Overcast
4:35 AM 66.2 °F 66.2 °F 100% 30.15 in 0.8 mi WSW 16.1 mph 21.9 mph N/A   Overcast
4:55 AM 66.2 °F 66.2 °F 100% 30.16 in 0.2 mi West 11.5 mph - N/A Fog Fog
5:15 AM 66.2 °F 66.2 °F 100% 30.16 in 0.2 mi West 12.7 mph 18.4 mph N/A Fog Fog
5:35 AM 66.2 °F 66.2 °F 100% 30.16 in 0.5 mi WSW 15.0 mph - N/A Fog Fog
5:55 AM 66.2 °F 66.2 °F 100% 30.16 in 1.2 mi West 13.8 mph 23.0 mph N/A   Overcast
6:15 AM 66.2 °F 66.2 °F 100% 30.17 in 0.2 mi West 13.8 mph - N/A Fog Fog
6:35 AM 66.2 °F 66.2 °F 100% 30.17 in 0.5 mi West 16.1 mph - N/A Fog Fog
6:55 AM 66.2 °F 66.2 °F 100% 30.17 in 0.8 mi West 18.4 mph - N/A   Overcast
7:15 AM 66.2 °F 66.2 °F 100% 30.17 in 1.8 mi West 15.0 mph - N/A   Overcast
7:35 AM 66.2 °F 66.2 °F 100% 30.17 in 1.5 mi West 17.3 mph 24.2 mph N/A   Overcast
7:55 AM 66.2 °F 66.2 °F 100% 30.17 in 1.5 mi West 13.8 mph 19.6 mph N/A   Overcast
8:15 AM 66.2 °F 66.2 °F 100% 30.17 in 1.0 mi West 12.7 mph - N/A   Overcast
8:35 AM 66.2 °F 66.2 °F 100% 30.17 in 0.5 mi West 15.0 mph 20.7 mph N/A Fog Fog
8:55 AM 66.2 °F 66.2 °F 100% 30.18 in 1.8 mi West 17.3 mph 24.2 mph N/A   Overcast
9:15 AM 66.2 °F 66.2 °F 100% 30.18 in 1.8 mi West 16.1 mph 23.0 mph N/A   Overcast
9:35 AM 66.2 °F 66.2 °F 100% 30.18 in 4.0 mi West 17.3 mph 24.2 mph N/A   Overcast
9:55 AM 66.2 °F 66.2 °F 100% 30.18 in 5.0 mi West 18.4 mph 24.2 mph N/A   Overcast
10:15 AM 68.0 °F 68.0 °F 100% 30.18 in 5.0 mi West 17.3 mph 25.3 mph N/A   Overcast
10:35 AM 68.0 °F 68.0 °F 100% 30.19 in 7.0 mi West 15.0 mph 23.0 mph N/A   Overcast
10:55 AM 69.8 °F 68.0 °F 94% 30.18 in 10.0 mi West 18.4 mph 24.2 mph N/A   Overcast
11:15 AM 69.8 °F 68.0 °F 94% 30.19 in 10.0 mi West 20.7 mph 25.3 mph N/A   Overcast
11:35 AM 71.6 °F 69.8 °F 94% 30.18 in 10.0 mi West 16.1 mph 27.6 mph N/A   Overcast
11:55 AM 71.6 °F 68.0 °F 88% 30.18 in 10.0 mi West 16.1 mph 31.1 mph N/A   Overcast
12:15 PM 71.6 °F 68.0 °F 88% 30.18 in 10.0 mi West 20.7 mph 28.8 mph N/A   Overcast
12:35 PM 73.4 °F 66.2 °F 78% 30.19 in 10.0 mi West 19.6 mph 28.8 mph N/A   Mostly Cloudy
12:55 PM 73.4 °F 68.0 °F 83% 30.19 in 10.0 mi West 18.4 mph 25.3 mph N/A   Mostly Cloudy
1:15 PM 73.4 °F 68.0 °F 83% 30.19 in 10.0 mi West 17.3 mph 27.6 mph N/A   Mostly Cloudy
1:35 PM 73.4 °F 66.2 °F 78% 30.19 in 10.0 mi West 19.6 mph 26.5 mph N/A   Mostly Cloudy
1:55 PM 73.4 °F 66.2 °F 78% 30.19 in 10.0 mi West 13.8 mph 27.6 mph N/A   Overcast
2:15 PM 73.4 °F 68.0 °F 83% 30.19 in 10.0 mi West 12.7 mph - N/A   Overcast
2:35 PM 73.4 °F 68.0 °F 83% 30.18 in 10.0 mi West 11.5 mph 23.0 mph N/A   Mostly Cloudy
2:55 PM 73.4 °F 68.0 °F 83% 30.18 in 10.0 mi West 9.2 mph - N/A   Mostly Cloudy
3:15 PM 75.2 °F 69.8 °F 83% 30.18 in 10.0 mi West 15.0 mph 23.0 mph N/A   Mostly Cloudy
3:35 PM 75.2 °F 66.2 °F 73% 30.18 in 10.0 mi West 15.0 mph 23.0 mph N/A   Mostly Cloudy
3:55 PM 75.2 °F 68.0 °F 78% 30.17 in 10.0 mi West 13.8 mph - N/A   Scattered Clouds
4:15 PM 75.2 °F 68.0 °F 78% 30.17 in 10.0 mi WSW 15.0 mph 19.6 mph N/A   Scattered Clouds
4:35 PM 75.2 °F 66.2 °F 73% 30.17 in 10.0 mi West 12.7 mph 18.4 mph N/A   Mostly Cloudy
4:55 PM 73.4 °F 68.0 °F 83% 30.17 in 7.0 mi West 12.7 mph 18.4 mph N/A   Overcast
5:15 PM 75.2 °F 69.8 °F 83% 30.17 in 10.0 mi West 10.4 mph 18.4 mph N/A   Mostly Cloudy
5:35 PM 73.4 °F 68.0 °F 83% 30.17 in 7.0 mi WSW 11.5 mph 17.3 mph N/A   Mostly Cloudy
5:55 PM 75.2 °F 69.8 °F 83% 30.17 in 10.0 mi West 10.4 mph - N/A   Mostly Cloudy
6:15 PM 73.4 °F 66.2 °F 78% 30.18 in 10.0 mi West 12.7 mph - N/A   Scattered Clouds
6:35 PM 73.4 °F 66.2 °F 78% 30.18 in 10.0 mi West 9.2 mph - N/A   Mostly Cloudy
6:55 PM 73.4 °F 66.2 °F 78% 30.18 in 10.0 mi West 10.4 mph - N/A   Mostly Cloudy
7:15 PM 71.6 °F 68.0 °F 88% 30.18 in 7.0 mi West 8.1 mph - N/A   Mostly Cloudy
7:35 PM 71.6 °F 68.0 °F 88% 30.19 in 7.0 mi West 8.1 mph - N/A   Mostly Cloudy
7:55 PM 71.6 °F 66.2 °F 83% 30.19 in 7.0 mi West 10.4 mph - N/A   Mostly Cloudy
8:15 PM 69.8 °F 66.2 °F 88% 30.19 in 10.0 mi West 9.2 mph - N/A   Scattered Clouds
8:35 PM 69.8 °F 66.2 °F 88% 30.19 in 10.0 mi West 10.4 mph - N/A   Scattered Clouds
8:55 PM 69.8 °F 66.2 °F 88% 30.19 in 10.0 mi West 11.5 mph - N/A   Scattered Clouds
9:15 PM 69.8 °F 66.2 °F 88% 30.19 in 10.0 mi West 10.4 mph - N/A   Clear
9:35 PM 69.8 °F 66.2 °F 88% 30.19 in 10.0 mi West 9.2 mph - N/A   Clear
9:55 PM 69.8 °F 66.2 °F 88% 30.20 in 10.0 mi West 10.4 mph - N/A   Scattered Clouds
10:15 PM 69.8 °F 66.2 °F 88% 30.20 in 10.0 mi West 10.4 mph 16.1 mph N/A   Scattered Clouds
10:35 PM 69.8 °F 66.2 °F 88% 30.21 in 10.0 mi West 10.4 mph 17.3 mph N/A   Clear
10:55 PM 69.8 °F 66.2 °F 88% 30.21 in 10.0 mi West 10.4 mph - N/A   Clear
11:15 PM 69.8 °F 66.2 °F 88% 30.21 in 10.0 mi West 10.4 mph - N/A   Scattered Clouds
11:35 PM 69.8 °F 66.2 °F 88% 30.21 in 10.0 mi West 8.1 mph - N/A   Mostly Cloudy
11:55 PM 69.8 °F 68.0 °F 94% 30.23 in 10.0 mi West 10.4 mph - N/A   Overcast